This is the latest recevied weather packets stored in our database for station/object IT9FBN-3. If no packets are shown the sender has not sent any weather packets the latest 10 day(s).
| Time | Temp. | Humidity | Pressure | Rain* | Wind** | Luminosity | Snow |
|---|---|---|---|---|---|---|---|
| 1777826402 | 16.11° C | 68% | 1020.8 hPa | 0 mm | - | - | - |
| 1777826102 | 16.67° C | 68% | 1020.9 hPa | 0 mm | - | - | - |
| 1777825802 | 16.11° C | 68% | 1020.7 hPa | 0 mm | - | - | - |
| 1777825502 | 16.11° C | 67% | 1020.7 hPa | 0 mm | - | - | - |
| 1777825202 | 16.11° C | 66% | 1020.8 hPa | 0 mm | - | - | - |
| 1777824902 | 16.11° C | 59% | 1020.8 hPa | 0 mm | - | - | - |
| 1777824602 | 16.67° C | 62% | 1020.8 hPa | 0 mm | - | - | - |
| 1777824302 | 16.67° C | 64% | 1020.7 hPa | 0 mm | - | - | - |
| 1777824002 | 16.67° C | 66% | 1020.9 hPa | 0 mm | - | - | - |
| 1777823702 | 16.67° C | 63% | 1020.8 hPa | 0 mm | - | - | - |
| 1777823402 | 16.67° C | 62% | 1020.9 hPa | 0 mm | - | - | - |
| 1777823102 | 16.67° C | 62% | 1020.8 hPa | 0 mm | - | - | - |
| 1777822802 | 17.22° C | 62% | 1020.9 hPa | 0 mm | - | - | - |
| 1777822503 | 17.22° C | 60% | 1020.7 hPa | 0 mm | - | - | - |
| 1777822202 | 17.22° C | 54% | 1020.8 hPa | 0 mm | - | - | - |
| 1777821902 | 17.78° C | 61% | 1020.7 hPa | 0 mm | - | - | - |
| 1777821602 | 17.78° C | 59% | 1020.8 hPa | 0 mm | - | - | - |
| 1777821303 | 17.22° C | 62% | 1020.8 hPa | 0 mm | - | - | - |
| 1777821003 | 17.22° C | 58% | 1020.8 hPa | 0 mm | - | - | - |
| 1777820702 | 17.78° C | 59% | 1020.9 hPa | 0 mm | - | - | - |
| 1777820402 | 17.78° C | 56% | 1020.8 hPa | 0 mm | - | - | - |
| 1777820103 | 18.33° C | 58% | 1020.8 hPa | 0 mm | - | - | - |
| 1777819802 | 18.89° C | 55% | 1020.8 hPa | 0 mm | - | - | - |
| 1777819503 | 18.33° C | 52% | 1020.8 hPa | 0 mm | - | - | - |
| 1777819202 | 18.33° C | 53% | 1020.7 hPa | 0 mm | - | - | - |
* Rain latest hour (hover to see other rain measurements)
** Current wind speed in m/s (hover to see current wind gust speed)